Location: Oshawa
(43.9000°N, 78.8670°W)
Time: 03:35:35
(UTC-04:00)

SPOT 5 - Pass Details

Date: 22 June 2018
Orbit: 623 x 815 km, 98.4° (Epoch: 22 July)

Event Time Altitude Azimuth Distance (km) Brightness Sun altitude
Exits shadow 22:57:06 19° 179° (S) 1,759 4.4 -15.4°
Maximum altitude 23:00:46 66° 258° (WSW) 852 3.3 -15.7°
Drops below altitude 10° 23:06:02 10° 341° (NNW) 2,390 6.8 -16.2°
Sets 23:08:27 0° 345° (NNW) 3,338 7.8 -16.4°
